Miscellaneous Local Product
Issued by NWS North Platte, NE

Home | Current Version | Previous Version | Text Only | Print | Product List | Glossary On
Versions: 1 2 3 4 5 6 7 8 9 10 11 12 13 14 15 16 17 18 19 20 21 22 23 24 25 26 27 28 29 30 31 32 33 34 35 36 37 38 39 40 41 42 43 44 45 46 47 48 49 50
000
AXUS43 KLBF 030410
MISLBF


WESTERN AND NORTH CENTRAL NEBRASKA HOURLY WEATHER ROUNDUP
NATIONAL WEATHER SERVICE NORTH PLATTE NE
1000 PM CST MON MAR 02 2015

***STATIONS NOT REPORTING VARIABLES SUCH AS SKY/WEATHER OR
PRESSURE ARE PROVIDED BY THE NEBRASKA DEPARTMENT OF
ROADS...RAWS...AND APRS NETWORKS...AND ARE NOT UNDER
NATIONAL WEATHER SERVICE QUALITY CONTROL***

...OBSERVATIONS IN AND NEAR THE EASTERN PANHANDLE OF NEBRASKA...

CITY           SKY/WX    TMP DP  RH WIND       PRES   REMARKS
PINE RIDGE     MOCLDY    31  22  69 SW8       29.66S WCI  23
CHADRON        CLOUDY    33  24  69 W5        29.65R WCI  29
ALLIANCE       CLOUDY    29  24  82 S12       29.62F WCI  19
SIDNEY         CLOUDY    29  26  89 SE10      29.59F FOG     WCI  20
WHITECLAY        N/A     29  21  73 S7          N/A  WCI  22
CRESCENT LAKE    N/A     28  24  83 SE7G14      N/A  WCI  21
LISCO            N/A     32  25  74 E9          N/A  WCI  24
BIG SPRINGS      N/A     30  28  94 SE15        N/A  WCI  19
LEWELLEN         N/A     28  27  93 SE13        N/A  WCI  18
$$

...OBSERVATIONS IN NORTH CENTRAL NEBRASKA...

CITY           SKY/WX    TMP DP  RH WIND       PRES   REMARKS
VALENTINE      FAIR      31  21  66 S9        29.72F WCI  23
THEDFORD       CLOUDY    32  25  76 S16       29.71F WCI  21
AINSWORTH      CLOUDY    30  19  64 S14G20    29.73F WCI  20
O`NEILL        FAIR      32  17  53 S13       29.82F WCI  22
ORD            CLOUDY    30  15  53 S15G26    29.80F WCI  19
BROKEN BOW     CLOUDY    30  17  58 S18G26    29.77F WCI  18
BROWNLEE         N/A     30  23  74 S15         N/A  WCI  19
SPRINGVIEW       N/A     32  20  60 SE6G13      N/A  WCI  26
BREWSTER         N/A     33  23  67 S18         N/A  WCI  21
ROSE             N/A     34  24  66 E13         N/A  WCI  25
NEWPORT          N/A     34  19  55 S15         N/A  WCI  24
SARGENT          N/A     30  18  61 S6          N/A  WCI  24
COMSTOCK         N/A     34  19  55 S13         N/A  WCI  25
CHAMBERS         N/A     30  12  48 S12G20      N/A  WCI  20
EWING            N/A     31  19  61 S8G17       N/A  WCI  24
$$

...OBSERVATIONS IN SOUTHWEST NEBRASKA AND FAR NORTHEAST COLORADO...

CITY           SKY/WX    TMP DP  RH WIND       PRES   REMARKS
WRAY           CLOUDY    34  31  90 SE12      29.60F WCI  26
IMPERIAL         N/A     31  27  85 SE15G26   29.63F FOG     WCI  20
OGALLALA       CLOUDY    30  29  95 SE14G21   29.65F FOG     WCI  19
NORTH PLATTE   CLOUDY    30  22  72 SE16G22   29.72F WCI  19
MCCOOK         CLOUDY    31  23  72 SE13      29.72F WCI  21
LEXINGTON      CLOUDY    31  21  66 S15G23    29.77F WCI  20
PAXTON           N/A     30  27  88 SE9         N/A  WCI  22
BRADY            N/A     29  21  72 CALM        N/A
GOTHENBURG       N/A     29  20  70 SE12        N/A  WCI  19
CALLAWAY         N/A     28  22  76 S18         N/A  WCI  15
$$

...NORTH PLATTE AREA...

CITY           SKY/WX    TMP DP  RH WIND       PRES   REMARKS
AIRPORT        CLOUDY    30  22  72 SE16G22   29.72F WCI  19
$$

...SOME WEATHER OBSERVATIONS FROM AROUND THE REGION...

CITY           SKY/WX    TMP DP  RH WIND       PRES   REMARKS
DENVER         MOCLDY    29  22  75 W8        29.54R HAZE    WCI  21
LARAMIE        CLOUDY    33  31  92 SW15      29.57R WCI  23
CHEYENNE       CLOUDY    32  24  72 W7        29.58R WCI  26
SCOTTSBLUFF    FAIR      29  24  82 E7        29.66R WCI  22
RAPID CITY     CLOUDY    37  20  50 N14       29.68R WCI  28
PIERRE         CLOUDY    37  17  44 SE10      29.72F WCI  30
WINNER         FAIR      35  16  45 S14       29.76S WCI  26
SIOUX FALLS    CLOUDY    28  20  71 SE10G24   29.92F WCI  19
OMAHA          CLOUDY    33  19  56 SE21      29.99F WCI  21
GRAND ISLAND   FAIR      29  17  61 S13       29.87F WCI  19
KANSAS CITY    CLOUDY    34  21  59 S13       30.05F WCI  25
WICHITA        CLOUDY    31  29  92 S17       30.00F FOG     WCI  19
HAYS           FAIR      28  18  64 SE16      29.83F WCI  17
LIBERAL        FAIR      36  30  80 S21G28    29.83F WCI  24
GOODLAND       CLOUDY    32  30  92 S25G33    29.61F WCI  19
$$



USA.gov is the U.S. government's official web portal to all federal, state and local government web resources and services.